Regional Weather Roundup
Issued by NWS

Home | Current Version | Previous Version | Graphics & Text | Print | Product List | Glossary On
Versions: 1 2 3 4 5 6 7 8 9 10 11 12 13 14 15 16 17 18 19 20 21 22 23 24 25 26 27 28 29 30 31 32 33 34 35 36 37 38 39 40 41 42 43 44 45 46 47 48 49 50
000
ASUS43 KLSX 192307
RWRMO

WEATHER SUMMARY FOR MISSOURI
NATIONAL WEATHER SERVICE SPRINGFIELD MO
600 PM CDT SUN APR 19 2015

NOTE: "FAIR" INDICATES FEW OR NO CLOUDS BELOW 12,000 FEET WITH NO
       SIGNIFICANT WEATHER AND/OR OBSTRUCTIONS TO VISIBILITY.
       CURRENT SKY AND/OR WEATHER CONDITIONS ARE NOT AVAILABLE FOR
       CHILLICOTHE AND FARMINGTON.

MOZ001>031-035>038-043-044-053-054-200000-
...NORTHERN AND WESTERN MISSOURI...

CITY           SKY/WX    TMP DP  RH WIND       PRES   REMARKS
KANSAS CTY INT CLOUDY    53  48  83 NW21G32   29.65R
KANSAS C DTWN  CLOUDY    56  48  74 NW18G30   29.64R
LEE`S SUMMIT   CLOUDY    56  49  77 NW22G30   29.64R
ST JOSEPH      LGT RAIN  51  48  89 NW22      29.68R FOG
CHILLICOTHE      N/A     59  53  80 W10G17    29.58S
KIRKSVILLE     CLOUDY    62  56  80 W10G20    29.50F

$$
MOZ066>068-077>081-088>096-101>105-200000-
...SOUTHWEST MISSOURI...

CITY           SKY/WX    TMP DP  RH WIND       PRES   REMARKS
SPRINGFIELD    SUNNY     64  48  56 W9        29.58F
JOPLIN         MOSUNNY   65  53  65 W10G18    29.62F

$$
MOZ032>034-039>042-045>050-055>058-069>072-200000-
...CENTRAL MISSOURI...

CITY           SKY/WX    TMP DP  RH WIND       PRES   REMARKS
COLUMBIA       CLOUDY    67  55  65 W10       29.51F
JEFFERSON CITY CLOUDY    68  55  63 W10       29.52F
ROLLA          LGT RAIN  67  54  63 W10       29.52F
SEDALIA        PTSUNNY   67  53  61 NW13G18   29.55F
WHITEMAN AFB   PTSUNNY   61  56  84 NW13      29.57R THUNDER
WARRENSBURG    CLOUDY    59  52  77 W12G20    29.60R
OSAGE BEACH    MOSUNNY   70  48  46 W9        29.53F

$$
MOZ051-052-059>065-200000-
...EAST CENTRAL MISSOURI...

CITY           SKY/WX    TMP DP  RH WIND       PRES   REMARKS
ST LOUIS INTL  CLOUDY    63  57  82 W12       29.50R
SPIRIT OF STL  CLOUDY    62  57  83 W7        29.50R
ST CHARLES     CLOUDY    61  57  87 SW14      29.49R

$$
MOZ072>076-082>087-097>100-106>115-200000-
...SOUTH CENTRAL AND SOUTHEAST MISSOURI...

CITY           SKY/WX    TMP DP  RH WIND       PRES   REMARKS
CAPE GIRARDEAU PTSUNNY   67  63  87 W7        29.52S
FARMINGTON     CLOUDY    64  57  77 W7        29.56S
POPLAR BLUFF   CLOUDY    63  56  78 MISG      29.54S
WEST PLAINS    MOSUNNY   71  48  43 NW9       29.57F

$$


USA.gov is the U.S. government's official web portal to all federal, state and local government web resources and services.